Skip Page Navigation
NASA JPL Caltech
NASA Logo - Jet Propulsion Laboratory + View the NASA Portal
+ Center for Near-Earth Object Studies
JPL Home Earth Solar System Stars & Galaxies Technology
JPL Solar System Dynamics
BODIES ORBITS EPHEMERIDES TOOLS PHYSICAL DATA DISCOVERY FAQ SITE MAP
IMPORTANT: The SSD Announcement email list is now available. Major changes are coming in the near future, including possible hostname and/or URL changes. To be notified of such changes, subscribe to this email list.

Please visit this page for more details.


JPL Small-Body Database Browser
Search: [ help ]  
292 Ludovica
Classification: Main-belt Asteroid          SPK-ID: 2000292
Ephemeris | Orbit Diagram | Orbital Elements | Mission Design | Physical Parameters | Discovery Circumstances | Close-Approach Data ]

[ show orbit diagram ]
Orbital Elements at Epoch 2459000.5 (2020-May-31.0) TDB
Reference: JPL 35 (heliocentric ecliptic J2000)
 Element Value Uncertainty (1-sigma)   Units 
e .03326365905629881 4.4047e-08  
a 2.529295836918883 8.7384e-09 au
q 2.445162202547098 1.122e-07 au
i 14.88704029004457 4.8106e-06 deg
node 43.49066007062434 1.7809e-05 deg
peri 285.3849188832609 7.4554e-05 deg
M 11.35602236412021 7.3428e-05 deg
tp 2458954.153002012661
(2020-Apr-14.65300201)
0.00029963 TDB
period 1469.257345614149
4.02
7.6142e-06
2.085e-08
d
yr
n .2450217459008314 1.2698e-09 deg/d
Q 2.613429471290669 9.0291e-09 au
  Orbit Determination Parameters
   # obs. used (total)      2920  
   data-arc span      46773 days (128.06 yr)  
   first obs. used      1891-08-28  
   last obs. used      2019-09-19  
   planetary ephem.      DE431  
   SB-pert. ephem.      SB431-N16  
   condition code      0  
   norm. resid. RMS      .35186  
   source      ORB  
   producer      Otto Matic  
   solution date      2020-Feb-22 15:23:28  

Additional Information
 Earth MOID = 1.48036 au 
 Jupiter MOID = 2.47913 au 
 T_jup = 3.404 
[ show covariance matrix ]

Ephemeris | Orbit Diagram | Orbital Elements | Mission Design | Physical Parameters | Discovery Circumstances | Close-Approach Data ]

Physical Parameter Table
Parameter Symbol Value Units Sigma Reference Notes
absolute magnitude H 9.9   n/a MPO435697  
diameter diameter 30.864 km 0.089 urn:nasa:pds:neowise_diameters_albedos::2.0[mainbelt] (http://adsabs.harvard.edu/abs/2014ApJ...791..121M)  
rotation period rot_per 8.93 h n/a LCDB (Rev. 2019-August); Warner et al., 2009 Published Reference List:
[Binzel, R.P. (1987) Icarus 72, 135-208.]
[Durech, J. (2006) IAU 2006, poster paper.]
[Ruthroff, J.C. (2010) Minor Planet Bull. 37, 158-159.]
[Hanus, J.; Durech, J.; Broz, M.; Warner, B.D.; et al. (2011) Astron. Astrophys. 530, A134.]
[Behrend, R. (2014) Observatoire de Geneve web site, http://obswww.unige.ch/~behrend/page_cou.html]
[Waszczak, A.; Chang, C.-K.; Ofeck, E.O.; Laher, F.; et al. (2015) Astron. J. 150, A75.]
[Behrend, R. (2018) Observatoire de Geneve web site, http://obswww.unige.ch/~behrend/page_cou.html]
geometric albedo albedo 0.187   0.036 urn:nasa:pds:neowise_diameters_albedos::2.0[mainbelt] (http://adsabs.harvard.edu/abs/2014ApJ...791..121M)  
B-V BV 0.860   0.020 EAR-A-5-DDR-UBV-MEAN-VALUES-V1.2 #obs=1; phase=1.14 deg.
U-B UB 0.440   0.030 EAR-A-5-DDR-UBV-MEAN-VALUES-V1.2 #obs=1; phase=1.14 deg.

292 Ludovica          Discovered 1890-Apr-25 by Palisa, J. at Vienna
Reference: DISCOVERY.DBLast Updated: 2003-08-29

[ show close-approach data ]
Alternate Designations
 1930 GM 
Ephemeris | Orbit Diagram | Orbital Elements | Mission Design | Physical Parameters | Discovery Circumstances | Close-Approach Data ]
ABOUT SSD CREDITS/AWARDS PRIVACY/COPYRIGHT GLOSSARY LINKS
FirstGov 2020-Apr-01 08:40 UT
(server date/time)  
NASA Home Page
Site Manager:   Ryan S. Park
Webmaster  Alan B. Chamberlin